Regional Weather Roundup
Issued by NWS

Home | Current Version | Previous Version | Graphics & Text | Print | Product List | Glossary On
Versions: 1 2 3 4 5 6 7 8 9 10 11 12 13 14 15 16 17 18 19 20 21 22 23 24 25 26 27 28 29 30 31 32 33 34 35 36 37 38 39 40 41 42 43 44 45 46 47 48 49 50
000
ASUS45 KSLC 211310
RWRUT

UTAH REGIONAL WEATHER ROUNDUP
NATIONAL WEATHER SERVICE SALT LAKE CITY UT
600 AM MST SAT JAN 21 2017

UTZ001>011-023>025-211400-

NORTHERN UTAH

CITY           SKY/WX    TMP DP  RH WIND       PRES   REMARKS
BRIGHAM CITY     N/A     31  29  93 NW3       29.30S
HILL AFB       LGT SNOW  32  30  93 E12       29.29R FOG     WCI  23
LOGAN          LGT SNOW  26  25  96 CALM      29.31R FOG
OGDEN          LGT SNOW  32  31  96 NE7       29.29R FOG     WCI  26
SALT LAKE CITY SNOW      33  32  96 N3        29.29R VSB 1/2
TOOELE VALLEY  LGT SNOW  32  32 100 CALM      29.31R
WENDOVER       CLOUDY    25  23  93 CALM      29.34R
HEBER CITY     LGT SNOW  28  27  93 CALM      29.26R
WEST JORDAN    CLOUDY    32  32 100 CALM      29.29R VSB 1

$$

UTZ011>015-024>027-211400-

CENTRAL/NORTHEAST UTAH

CITY           SKY/WX    TMP DP  RH WIND       PRES   REMARKS
PROVO AIRPORT  LGT SNOW  32  31  96 NW5       29.29R FOG     WCI  27
MOAB/CANYONLAN LGT SNOW  33  33 100 NE9       29.28S FOG     WCI  25
DELTA          CLOUDY    32  32 100 SW10      29.29R WCI  24
PRICE          LGT SNOW  30  30 100 NE5       29.28S FOG     WCI  25
RICHFIELD      CLOUDY    30  30 100 S3        29.31R FOG
ROOSEVELT      LGT SNOW  23  19  86 CALM      29.37S
VERNAL         LGT SNOW  20  17  88 CALM      29.34F FOG

$$

UTZ013>016-019>022-027-211400-

SOUTHERN UTAH

CITY           SKY/WX    TMP DP  RH WIND       PRES   REMARKS
BRYCE CANYON   CLOUDY    22  19  89 CALM      29.30R
CEDAR CITY     LGT SNOW  31  26  82 SW7       29.34R WCI  24
MILFORD        CLOUDY    33  31  92 SW13      29.31R WCI  24
ST GEORGE      CLOUDY    43  34  70 SW9       29.42R
HANKSVILLE     CLOUDY    34  32  93 MISG      29.31S
KANAB          CLOUDY    34  32  93 S12       29.42R FOG     WCI  25
BLANDING       CLOUDY    31  31 100 CALM      29.38S VSB 1

$$

REGIONAL REPORTS     COLORADO/ARIZONA

CITY           SKY/WX    TMP DP  RH WIND       PRES   REMARKS
CRAIG, CO      CLOUDY    14  10  84 CALM      29.34F
GRAND JUNCTION CLOUDY    34  29  82 SE8       29.32S WCI  27
RIFLE, CO      CLOUDY    27  23  85 CALM      29.33F
MONTROSE, CO   CLOUDY    31  20  63 NE13      29.34F WCI  21
CORTEZ, CO     LGT SNOW  32  31  96 N5        29.32F FOG     WCI  27
COLORADO CITY  CLOUDY    34  34 100 SW12G21   29.41R WCI  25
PAGE, AZ       CLOUDY    37  31  78 SW5       29.34R WCI  33
GRAND CANYON   LGT SNOW  27  26  96 W14G22    29.39R FOG     WCI  16
KINGMAN, AZ    LGT RAIN  40  34  79 SW24G31   29.47R WCI  29
FLAGSTAFF, AZ  LGT SNOW  26  23  88 W12G29    29.41R FOG     WCI  16

$$

REGIONAL REPORTS    NEVADA/IDAHO/WYOMING

CITY           SKY/WX    TMP DP  RH WIND       PRES   REMARKS
LAS VEGAS, NV  MOCLDY    44  30  57 SW7       29.44R
ELY, NY        MOCLDY    24  19  81 W8        29.37R WCI  15
ELKO, NV       LGT SNOW  28  25  88 SW3       29.38R FOG
POCATELLO, ID  CLOUDY    29  27  92 CALM      29.32R
BURLEY, ID     CLOUDY    32  28  85 W5        29.32R WCI  27
FORT BRIDGER,  CLOUDY    13  13 100 W3        29.32S
EVANSTON, WY   LGT SNOW  16  12  84 E9        29.28R FOG     WCI   4
ROCK SPRINGS,  CLOUDY    15  12  88 NE6       29.30S WCI   6

$$



USA.gov is the U.S. government's official web portal to all federal, state and local government web resources and services.